Weather History for KRPD - May, 2009

Change the Weather History Date:

Monday, May 4, 2009

  Actual Average Record
Temperature  
Mean Temperature 52 °F -  
Max Temperature 71 °F - - ()
Min Temperature 33 °F - - ()
Degree Days  
Heating Degree Days 13    
Growing Degree Days 2 (Base 50)    
Moisture  
Dew Point 34 °F    
Average Humidity 54    
Maximum Humidity 93    
Minimum Humidity 25    
Precipitation  
Precipitation 0.00 in - - ()
Sea Level Pressure  
Sea Level Pressure 30.00 in    
Wind  
Wind Speed 3 mph (SE)    
Max Wind Speed 14 mph    
Max Gust Speed 20 mph    
Visibility 10 miles    
Events      
T = Trace of Precipitation, MM = Missing Value Source: NWS Daily Summary

Daily Weather History Graph

Daily Weather History Graph

Search for Another Location

Airport or City:

Trip Planner

Search our weather history database for the weather conditions in past years. The results will help you decide how hot, cold, wet, or windy it might be!

Date:

Astronomy

May. 04, 2009 Rise Set
Actual Time 5:50 AM CDT 8:17 PM CDT
Civil Twilight 5:17 AM CDT 8:51 PM CDT
Nautical Twilight 4:36 AM CDT 9:32 PM CDT
Astronomical Twilight 3:49 AM CDT 10:19 PM CDT
Moon 3:46 PM CDT 3:29 AM CDT
Length of Visible Light 15h 33m
Length of Day
14h 27m
Waxing Gibbous, 80% of the Moon is Illuminated
May 4
Waxing Gibbous
May 8
Full
May 17
Last Quarter
May 24
New
May 30
First Quarter

Hourly Weather History & Observations

Time (CDT) Temp. Windchill Dew Point Humidity Pressure Visibility Wind Dir Wind Speed Gust Speed Precip Events Conditions
12:15 AM 42.8 °F - 36.3 °F 78% 29.98 in 10.0 mi Calm Calm - N/A   Clear
12:35 AM 41.4 °F - 36.7 °F 83% 29.98 in 10.0 mi Calm Calm - N/A   Clear
12:55 AM 42.1 °F - 34.7 °F 75% 29.98 in 10.0 mi Calm Calm - N/A   Clear
1:15 AM 41.2 °F - 34.5 °F 77% 29.99 in 10.0 mi Calm Calm - N/A   Clear
1:35 AM 40.1 °F - 34.5 °F 80% 29.99 in 10.0 mi Calm Calm - N/A   Clear
2:20 AM 37.4 °F - 33.8 °F 87% 30.00 in 10.0 mi Calm Calm - N/A   Clear
2:55 AM 35.6 °F - 32.0 °F 87% 30.00 in 10.0 mi Calm Calm - N/A   Clear
3:15 AM 37.4 °F - 33.8 °F 87% 30.01 in 10.0 mi Calm Calm - N/A   Clear
3:35 AM 35.6 °F - 32.0 °F 87% 30.01 in 10.0 mi Calm Calm - N/A   Clear
3:55 AM 35.6 °F 32.8 °F 32.0 °F 87% 30.02 in 10.0 mi North 3.5 mph - N/A   Clear
4:15 AM 35.6 °F 32.8 °F 32.0 °F 87% 30.02 in 10.0 mi North 3.5 mph - N/A   Clear
4:40 AM 35.6 °F - 33.8 °F 93% 30.03 in 10.0 mi Calm Calm - N/A   Clear
4:55 AM 33.8 °F - 32.0 °F 93% 30.03 in 10.0 mi Calm Calm - N/A   Clear
5:18 AM 33.8 °F - 32.0 °F 93% 30.03 in 10.0 mi Calm Calm - N/A   Clear
5:40 AM 33.8 °F 30.8 °F 32.0 °F 93% 30.04 in 10.0 mi North 3.5 mph - N/A   Clear
5:55 AM 33.8 °F - 30.2 °F 87% 30.04 in 10.0 mi Calm Calm - N/A   Clear
6:15 AM 33.8 °F - 32.0 °F 93% 30.04 in 10.0 mi Calm Calm - N/A   Clear
6:35 AM 33.8 °F - 32.0 °F 93% 30.05 in 10.0 mi Calm Calm - N/A   Clear
7:00 AM 35.6 °F - 33.8 °F 93% 30.06 in 10.0 mi Calm Calm - N/A   Clear
7:17 AM 39.2 °F - 35.6 °F 87% 30.06 in 10.0 mi Calm Calm - N/A   Clear
7:35 AM 44.6 °F - 37.4 °F 76% 30.06 in 10.0 mi Calm Calm - N/A   Clear
7:55 AM 46.4 °F - 37.4 °F 71% 30.06 in 10.0 mi Calm Calm - N/A   Clear
8:15 AM 51.8 °F - 35.6 °F 54% 30.07 in 10.0 mi ENE 4.6 mph - N/A   Clear
8:35 AM 55.4 °F - 28.4 °F 36% 30.06 in 10.0 mi East 5.8 mph - N/A   Clear
8:55 AM 57.2 °F - 30.2 °F 36% 30.06 in 10.0 mi ENE 8.1 mph - N/A   Clear
9:15 AM 57.2 °F - 30.2 °F 36% 30.06 in 10.0 mi East 6.9 mph - N/A   Clear
9:35 AM 60.8 °F - 28.4 °F 29% 30.05 in 10.0 mi ESE 9.2 mph - N/A   Clear
10:35 AM 62.6 °F - 30.2 °F 30% 30.04 in 10.0 mi ESE 10.4 mph - N/A   Clear
10:55 AM 64.4 °F - 32.0 °F 30% 30.04 in 10.0 mi ESE 6.9 mph - N/A   Clear
11:15 AM 64.4 °F - 35.6 °F 34% 30.04 in 10.0 mi SSE 8.1 mph - N/A   Clear
11:35 AM 64.4 °F - 33.8 °F 32% 30.03 in 10.0 mi ESE 9.2 mph - N/A   Clear
12:00 PM 64.4 °F - 35.6 °F 34% 30.03 in 10.0 mi SE 6.9 mph - N/A   Clear
12:16 PM 64.4 °F - 35.6 °F 34% 30.03 in 10.0 mi South 9.2 mph - N/A   Clear
12:40 PM 66.2 °F - 33.8 °F 30% 30.02 in 10.0 mi South 5.8 mph - N/A   Clear
12:55 PM 66.2 °F - 33.8 °F 30% 30.01 in 10.0 mi SSE 5.8 mph - N/A   Clear
1:18 PM 68.0 °F - 33.8 °F 28% 30.01 in 10.0 mi South 12.7 mph 19.6 mph N/A   Clear
1:35 PM 68.0 °F - 33.8 °F 28% 30.01 in 10.0 mi SSW 9.2 mph 17.3 mph N/A   Clear
2:00 PM 66.2 °F - 33.8 °F 30% 30.00 in 10.0 mi South 12.7 mph 16.1 mph N/A   Clear
2:17 PM 68.0 °F - 35.6 °F 30% 30.00 in 10.0 mi South 10.4 mph - N/A   Clear
3:00 PM 69.8 °F - 35.6 °F 28% 29.98 in 10.0 mi SSW 9.2 mph 17.3 mph N/A   Clear
3:39 PM 69.8 °F - 35.6 °F 28% 29.97 in 10.0 mi South 9.2 mph 16.1 mph N/A   Clear
4:00 PM 69.8 °F - 35.6 °F 28% 29.97 in 10.0 mi South 9.2 mph 16.1 mph N/A   Scattered Clouds
4:55 PM 69.8 °F - 35.6 °F 28% 29.95 in 10.0 mi SSE 9.2 mph 17.3 mph N/A   Scattered Clouds
5:35 PM 69.8 °F - 35.6 °F 28% 29.94 in 10.0 mi South 9.2 mph - N/A   Mostly Cloudy
6:00 PM 71.6 °F - 33.8 °F 25% 29.94 in 10.0 mi SE 13.8 mph - N/A   Overcast
6:40 PM 68.0 °F - 33.8 °F 28% 29.93 in 10.0 mi SSE 13.8 mph - N/A   Scattered Clouds
6:55 PM 66.2 °F - 35.6 °F 32% 29.94 in 10.0 mi South 9.2 mph - N/A   Scattered Clouds
7:20 PM 66.2 °F - 35.6 °F 32% 29.93 in 10.0 mi SSE 6.9 mph - N/A   Mostly Cloudy
7:41 PM 64.4 °F - 35.6 °F 34% 29.93 in 10.0 mi SE 8.1 mph - N/A   Scattered Clouds
8:19 PM 62.6 °F - 35.6 °F 37% 29.93 in 10.0 mi SE 6.9 mph - N/A   Clear
8:35 PM 62.6 °F - 35.6 °F 37% 29.93 in 10.0 mi SE 6.9 mph - N/A   Clear
9:00 PM 60.8 °F - 35.6 °F 39% 29.93 in 10.0 mi SE 6.9 mph - N/A   Clear
9:16 PM 60.8 °F - 35.6 °F 39% 29.93 in 10.0 mi SE 6.9 mph - N/A   Clear
9:56 PM 60.8 °F - 35.6 °F 39% 29.93 in 10.0 mi SE 5.8 mph - N/A   Clear
10:15 PM 59.0 °F - 35.6 °F 42% 29.93 in 10.0 mi SE 5.8 mph - N/A   Clear
10:41 PM 59.0 °F - 35.6 °F 42% 29.93 in 10.0 mi SE 5.8 mph - N/A   Mostly Cloudy
11:15 PM 59.0 °F - 35.6 °F 42% 29.92 in 10.0 mi SE 6.9 mph - N/A   Mostly Cloudy
11:55 PM 57.2 °F - 37.4 °F 48% 29.92 in 10.0 mi ESE 6.9 mph - N/A   Overcast